Terminal Aerodrome Forecast
Issued by NWS Pittsburgh, PA

Current Version | Previous Version | Graphics & Text | Print | Product List | Glossary On
Versions: 1 2 3 4 5 6 7 8 9 10 11 12 13 14 15 16 17 18 19 20 21 22 23 24 25 26 27 28 29 30 31 32 33 34
000
FTUS41 KPBZ 212200 AAD
TAFPIT
TAF AMD
KPIT 212214Z 2122/2224 23006KT P6SM BKN250
     FM220100 VRB04KT P6SM SCT025 BKN250
     FM220800 VRB03KT 4SM BR SCT040 BKN080
     FM221400 23004KT P6SM BKN040
     FM221800 27008KT P6SM -SHRA BKN040=

USA.gov is the U.S. government's official web portal to all federal, state and local government web resources and services.